Weather History for Punta Gorda, FL

Change the Weather History Date:

Wednesday, February 20, 2013

  Actual Average Record
Temperature  
Mean Temperature 66 °F -  
Max Temperature 82 °F 75 °F 87 °F (1997)
Min Temperature 51 °F 53 °F 39 °F (2007)
Cooling Degree Days 2    
Growing Degree Days 16 (Base 50)    
Moisture  
Dew Point 57 °F    
Average Humidity 83    
Maximum Humidity 100    
Minimum Humidity 39    
Precipitation  
Precipitation 0.01 in - - ()
Sea Level Pressure  
Sea Level Pressure 30.11 in    
Wind  
Wind Speed 2 mph (North)    
Max Wind Speed 12 mph    
Max Gust Speed -    
Visibility 5 miles    
Events Fog    
Averages and records for this station are not official NWS values.
T = Trace of Precipitation, MM = Missing Value Source: NWS Daily Summary

Daily Weather History Graph

Daily Weather History Graph

Search for Another Location

Airport:

Trip Planner

Search our weather history database for the weather conditions in past years. The results will help you decide how hot, cold, wet, or windy it might be!

Date:

Astronomy

Feb. 20, 2013 Rise Set
Actual Time 7:00 AM EST 6:23 PM EST
Civil Twilight 6:36 AM EST 6:47 PM EST
Nautical Twilight 6:09 AM EST 7:14 PM EST
Astronomical Twilight 5:42 AM EST 7:41 PM EST
Moon 1:59 PM EST 3:03 AM EST
Length of Visible Light 12h 10m
Length of Day
11h 23m
Waxing Gibbous, 76% of the Moon is Illuminated
Feb 20
Waxing Gibbous
Feb 25
Full
Mar 4
Last Quarter
Mar 11
New
Mar 19
First Quarter

Hourly Weather History & Observations

Time (EST) Temp. Heat Index Dew Point Humidity Pressure Visibility Wind Dir Wind Speed Gust Speed Precip Events Conditions
12:03 AM 57.2 °F - 57.2 °F 100% 30.13 in 0.8 mi Calm Calm - N/A   Mist
12:23 AM 57.2 °F - 57.2 °F 100% 30.13 in 2.0 mi Calm Calm - N/A   Mostly Cloudy
12:29 AM 55.4 °F - 55.4 °F 100% 30.13 in 0.8 mi Calm Calm - N/A   Mist
12:53 AM 55.9 °F - 55.0 °F 97% 30.13 in 0.2 mi Calm Calm - N/A Fog Fog
1:44 AM 53.6 °F - 53.6 °F 100% 30.12 in 2.0 mi Calm Calm - N/A   Overcast
1:51 AM 53.6 °F - 53.6 °F 100% 30.12 in 7.0 mi Calm Calm - N/A   Overcast
1:53 AM 54.0 °F - 53.1 °F 97% 30.12 in 2.0 mi Calm Calm - N/A   Overcast
1:56 AM 55.4 °F - 53.6 °F 94% 30.12 in 0.8 mi Calm Calm - N/A   Mist
2:37 AM 53.6 °F - 53.6 °F 100% 30.10 in 0.2 mi Calm Calm - N/A Fog Fog
2:53 AM 54.0 °F - 54.0 °F 100% 30.11 in 0.2 mi Calm Calm - N/A Fog Fog
3:28 AM 51.8 °F - 51.8 °F 100% 30.10 in 0.2 mi Calm Calm - N/A Fog Fog
3:53 AM 53.1 °F - 52.0 °F 96% 30.11 in 0.2 mi Calm Calm - N/A Fog Fog
4:53 AM 53.1 °F - 53.1 °F 100% 30.10 in 0.2 mi Calm Calm - N/A Fog Fog
5:53 AM 54.0 °F - 53.1 °F 97% 30.11 in 0.5 mi Calm Calm - N/A Fog Fog
7:53 AM 55.9 °F - 55.0 °F 97% 30.14 in 0.2 mi Calm Calm - 0.01 in Fog Fog
8:53 AM 60.1 °F - 60.1 °F 100% 30.15 in 0.2 mi North 4.6 mph - N/A Fog Fog
9:40 AM 64.4 °F - 62.6 °F 94% 30.14 in 2.0 mi North 3.5 mph - N/A   Overcast
9:48 AM 64.4 °F - 62.6 °F 94% 30.14 in 9.0 mi NE 4.6 mph - N/A   Overcast
9:53 AM 64.9 °F - 63.0 °F 93% 30.14 in 10.0 mi NNE 4.6 mph - N/A   Mostly Cloudy
10:06 AM 66.2 °F - 64.4 °F 94% 30.14 in 10.0 mi NNE 3.5 mph - N/A   Clear
11:53 AM 78.1 °F - 57.9 °F 50% 30.14 in 10.0 mi Calm Calm - N/A   Partly Cloudy
12:53 PM 79.0 °F - 57.9 °F 48% 30.09 in 10.0 mi ESE 6.9 mph - N/A   Clear
1:53 PM 80.1 °F 80.4 °F 57.0 °F 45% 30.06 in 10.0 mi South 4.6 mph - N/A   Clear
2:53 PM 82.0 °F 81.4 °F 55.0 °F 39% 30.04 in 10.0 mi Calm Calm - N/A   Clear
3:53 PM 82.0 °F 81.7 °F 57.0 °F 42% 30.04 in 10.0 mi NNW 9.2 mph - N/A   Partly Cloudy
4:53 PM 82.0 °F 81.7 °F 57.0 °F 42% 30.04 in 10.0 mi NNW 5.8 mph - N/A   Partly Cloudy
5:53 PM 77.0 °F - 60.1 °F 56% 30.06 in 10.0 mi WNW 11.5 mph - N/A   Mostly Cloudy
6:53 PM 71.1 °F - 60.1 °F 68% 30.07 in 10.0 mi NW 5.8 mph - N/A   Clear
7:53 PM 70.0 °F - 60.1 °F 71% 30.09 in 10.0 mi NNW 3.5 mph - N/A   Clear
8:53 PM 66.0 °F - 59.0 °F 78% 30.11 in 10.0 mi NNW 5.8 mph - N/A   Clear
9:53 PM 66.0 °F - 60.1 °F 81% 30.11 in 10.0 mi North 4.6 mph - N/A   Clear
10:53 PM 64.9 °F - 60.1 °F 84% 30.11 in 10.0 mi North 3.5 mph - N/A   Clear
11:53 PM 63.0 °F - 59.0 °F 87% 30.10 in 10.0 mi East 3.5 mph - N/A   Clear